Preview of NWS' New Version of Forecast
This preview is not operational and should not be used for support decisions.

Regional Weather Roundup (RWR)

Issued by National Weather Service (NWS)

                            
000
ASUS46 KSEW 242210
RWRWA 

WASHINGTON REGIONAL WEATHER ROUNDUP
NATIONAL WEATHER SERVICE SEATTLE WA
300 PM PDT SAT AUG 24 2019

NOTE:"FAIR" INDICATES FEW OR NO CLOUDS BELOW 12,000 FEET WITH NO 
SIGNIFICANT WEATHER AND/OR OBSTRUCTIONS TO VISIBILITY.

WAZ507-509-555>559-242300-
SEATTLE, TACOMA, EVERETT, AND VICINITY
  
CITY           SKY/WX    TMP DP  RH WIND       PRES   REMARKS
EVERETT        MOSUNNY   72  49  44 SW8       30.01S                  
BOEING FIELD   SUNNY     75  54  47 SW6       29.98F                  
RENTON         PTSUNNY   74  56  53 VRB5      29.99S                  
SEATAC AIRPORT PTSUNNY   72  55  55 S10       30.00F                  
JBLM-MCCHORD   CLOUDY    74  63  67 W8        30.00R                  
PUYALLUP       CLOUDY    75  57  53 W5        30.00S                  
BREMERTON      PTSUNNY   75  59  57 SW13      29.99S                  
JBLM-FT LEWIS  PTSUNNY   75  64  68 SW9       29.99S                  
TACOMA NARROWS MOSUNNY   72  58  61 SW9       29.99F                  
$$
 
WAZ001-503-506-510-514-515-242300-
NORTH INTERIOR
  
CITY           SKY/WX    TMP DP  RH WIND       PRES   REMARKS
BELLINGHAM     CLOUDY    64  55  72 S10       30.01R                  
FRIDAY HARBOR  CLOUDY    65  55  70 SW12      30.01R                  
EASTSOUND      SUNNY     68  57  68 S8        29.99R                  
PORT ANGELES   CLOUDY    64  55  72 W8        30.03R                  
EDIZ HOOK      CLOUDY    62  56  79 W6        30.02R                  
PORT TOWNSEND  PTSUNNY   68  55  64 W9        30.00R                  
NAS WHIDBEY    PTSUNNY   68  54  60 W8        30.06R                  
ARLINGTON      PTSUNNY   73  54  51 NW10      29.99F                  
BURLINGTON     CLOUDY    72  55  56 CALM      30.01S                  
$$
 
WAZ020-022-039-040-504-511-512-242300-
SOUTHWEST INTERIOR
  
CITY           SKY/WX    TMP DP  RH WIND       PRES   REMARKS
SHELTON        MOSUNNY   73  59  61 W14       29.98F                  
OLYMPIA        PTSUNNY   72  58  61 SW8       30.00S                  
CHEHALIS       CLOUDY    75  61  60 NW8       30.01S                  
KELSO          CLOUDY    74  61  63 VRB7      30.01S                  
VANCOUVER      MOSUNNY   78  52  40 VRB6      29.98F                  
SCAPPOOSE, OR  CLOUDY    78  55  44 NW6       29.98F                  
PORTLAND, OR   MOSUNNY   80  53  39 NW8       29.98F                  
$$
 
WAZ021-516-517-242300-
WASHINGTON COAST
  
CITY           SKY/WX    TMP DP  RH WIND       PRES   REMARKS
FORKS          CLOUDY    64  58  80 W9        30.04S                  
HOQUIAM        SUNNY     69  58  67 W14       30.03R                  
ASTORIA, OR    CLOUDY    66  58  75 NW7       30.04S                  
$$
 
WAZ019-023-024-040-567>569-242300-
CASCADE MOUNTAINS AND COLUMBIA GORGE
  
CITY           SKY/WX    TMP DP  RH WIND       PRES   REMARKS
STAMPEDE PASS  MOSUNNY   61  45  55 VRB7      30.05S                  
TROUTDALE, OR  MOSUNNY   79  50  36 VRB6      29.98F                  
HOOD RIVER, OR PTCLDY    79  48  34 W9G17     29.94F                  
THE DALLES, OR SUNNY     84  51  31 W18G26    29.89F                  
$$

WAZ026-027-041>044-520-521-242300-
EAST SLOPES
  
CITY           SKY/WX    TMP DP  RH WIND       PRES   REMARKS
OMAK           CLOUDY    81  41  24 W5        29.82S                  
WENATCHEE      PTSUNNY   82  42  24 NW23      29.83F                  
ELLENSBURG     MOSUNNY   78  45  30 W24G33    29.90F                  
YAKIMA         MOSUNNY   85  46  25 W5        29.85F                  
SUNNYSIDE ARPT PTCLDY    84  52  33 W8        29.83F                  
YAKIMA TC      FAIR      85  42  22 NW10      29.85S                  
$$

WAZ028-034-035-242300-
COLUMBIA BASIN
  
CITY           SKY/WX    TMP DP  RH WIND       PRES   REMARKS
EPHRATA        PTSUNNY   85  39  19 W12       29.82S                  
MOSES LAKE     MOSUNNY   85  43  22 SW14      29.83S                  
PASCO          MOSUNNY   91  40  16 W10G20    29.82F                  
RICHLAND ARPT  PTCLDY    91  39  16 SW13      29.81F                  
HERMISTON, OR  SUNNY     89  46  22 SW20G26   29.83F                  
$$

WAZ036>038-242300-
NORTHEAST WASHINGTON
  
CITY           SKY/WX    TMP DP  RH WIND       PRES   REMARKS
SPOKANE GEIGER PTSUNNY   81  41  24 SW23G29   29.86S                  
SPOKANE FELTS  CLOUDY    82  40  22 W15G23    29.84S                  
FAIRCHILD AFB  SUNNY     80  42  25 W16       29.86F                  
COEURDALENE,ID PTSUNNY   81  40  23 SW16      29.85F                  
DEER PARK      PTSUNNY   81  43  26 W14G24    29.84S                  
$$

WAZ029>033-242300-
SOUTHEAST WASHINGTON
  
CITY           SKY/WX    TMP DP  RH WIND       PRES   REMARKS
PULLMAN        CLOUDY    79  42  26 W18G24    29.91S                  
LEWISTON, ID   CLOUDY    88  38  17 NW17G25   29.79F                  
WALLA WALLA    MOSUNNY   87  41  19 SW13G25   29.86F                  
PENDLETON, OR  MOSUNNY   86  42  21 W17G28    29.87F                  
$$